Terminal Aerodrome Forecast
Issued by NWS Paducah, KY

Home | Current Version | Previous Version | Text Only | Print | Product List | Glossary On
Versions: 1 2 3 4 5 6 7 8 9 10 11 12 13 14 15 16
000
FTUS43 KPAH 301700
TAFPAH
TAF
KPAH 301720Z 3018/0118 VRB03KT P6SM SKC
     FM011600 17005KT P6SM SKC=

USA.gov is the U.S. government's official web portal to all federal, state and local government web resources and services.